Home   Weather   Santiago de Cuba   Past weeks

Flag for Cuba Past Weather in Santiago de Cuba, Cuba — Yesterday and Last 2 Weeks

Now
75 °F

Passing clouds.


Feels Like: 76 °F
Forecast: 72 / 84 °F
Wind: 6 mph from North

Location: Santiago De Cuba - Oriente

Current Time: May 1, 2017 at 12:29:06 am

Latest Report: Apr 30, 2017 at 11:50 pm


Visibility: 6 mi

Pressure: 30.04 "Hg

Humidity: 78%

Dew Point: 68 °F

Location of Santiago de CubaLocation

Past Weather in Santiago de Cuba — Graph

°F

Santiago de Cuba Temperature Yesterday

Maximum temperature yesterday: 84 °F (at 11:52 am)
Minimum temperature yesterday: 73 °F (at 3:50 am)
Average temperature yesterday: 79 °F

High & Low Weather Summary for the Past Weeks

 TemperatureHumidityPressure
High86 °F (Apr 18, 10:53 am)100% (Apr 19, 4:50 pm)30.04 "Hg (Apr 19, 4:50 pm)
Low39 °F (Apr 19, 4:50 pm)42% (Apr 22, 9:50 am)29.80 "Hg (Apr 23, 4:50 am)
Average77 °F77%29.95 "Hg
* Reported Apr 15 10:53 pm — Apr 30 10:50 pm, Santiago de Cuba, Weather by CustomWeather, © 2017

Note: Actual official high and low records may vary slightly from our data, if they occured in-between our weather recording intervals... More about our weather records

Advertising

Santiago de Cuba Weather History for the Previous 24 Hours

Scroll right to see more
 ConditionsComfort  
Time TempWeatherWind HumidityBarometerVisibility
10:50 pm
Sun, Apr 30
75 °FPassing clouds.6 mph83%30.04 "Hg6 mi
9:50 pm77 °FPassing clouds.5 mph83%30.04 "Hg6 mi
8:51 pm77 °FPassing clouds.5 mph83%30.01 "Hg6 mi
7:50 pm81 °FScattered showers. Partly cloudy.13 mph70%N/A5 mi
6:52 pm81 °FScattered clouds.12 mph70%29.98 "Hg6 mi
5:51 pm81 °FScattered clouds.14 mph70%29.95 "Hg6 mi
4:50 pm81 °FScattered showers. Scattered clouds.20 mph70%29.95 "Hg5 mi
3:51 pm82 °FScattered clouds.17 mph66%29.95 "Hg6 mi
2:50 pm84 °FScattered clouds.16 mph62%29.98 "Hg6 mi
1:52 pm84 °FPassing clouds.15 mph62%29.98 "Hg6 mi
12:52 pm84 °FPassing clouds.13 mph62%30.01 "Hg6 mi
11:52 am84 °FPassing clouds.9 mph62%30.01 "Hg6 mi
10:50 am82 °FPassing clouds.6 mph58%30.04 "Hg6 mi
9:50 am82 °FPassing clouds.5 mph62%30.04 "Hg6 mi
8:51 am82 °FPassing clouds.6 mph62%30.04 "Hg6 mi
7:51 am77 °FPassing clouds.5 mph74%30.04 "Hg6 mi
6:51 am73 °FPassing clouds.5 mph78%30.01 "Hg6 mi
5:51 am75 °FPassing clouds.5 mph74%30.01 "Hg6 mi
4:51 am75 °FPassing clouds.5 mph74%29.98 "Hg6 mi
3:50 am73 °FPassing clouds.6 mph78%29.98 "Hg6 mi
2:50 am75 °FPassing clouds.5 mph74%29.98 "Hg6 mi
1:50 am75 °FPassing clouds.5 mph78%30.01 "Hg6 mi
12:50 am77 °FPassing clouds.5 mph74%30.01 "Hg6 mi
Weather by CustomWeather, © 2017

See weather overviewHow to use our weather pages